| time (UTC) | temp F | wind direction | speed knots | gust knots | rain 1hr in | rain 24hr in | rain mn in | humidity % | barometer mb |
| 20260506181537 | 80 | 138 | 5.2 | 9.6 | 0.00 | 0.00 | 0.00 | 90 | 1009.4 |
| 20260506180035 | 81 | 157 | 5.2 | 8.7 | 0.00 | 0.00 | 0.00 | 90 | 1009.6 |
| 20260506174527 | 80 | 147 | 4.3 | 7.8 | 0.00 | 0.00 | 0.00 | 90 | 1009.4 |
| 20260506173024 | 80 | 127 | 5.2 | 8.7 | 0.00 | 0.00 | 0.00 | 91 | 1009.7 |
| 20260506171530 | 80 | 144 | 4.3 | 7.0 | 0.00 | 0.00 | 0.00 | 91 | 1009.9 |
| 20260506170020 | 80 | 136 | 4.3 | 8.7 | 0.00 | 0.00 | 0.00 | 91 | 1010.0 |
| 20260506164516 | 79 | 155 | 2.6 | 7.0 | 0.00 | 0.00 | 0.00 | 92 | 1010.0 |
| 20260506163014 | 79 | 146 | 5.2 | 7.8 | 0.00 | 0.00 | 0.00 | 93 | 1009.9 |
| 20260506161511 | 78 | 146 | 5.2 | 9.6 | 0.00 | 0.00 | 0.00 | 94 | 1009.8 |
| 20260506160008 | 78 | 172 | 3.5 | 7.8 | 0.00 | 0.00 | 0.00 | 95 | 1009.8 |
| 20260506154504 | 78 | 146 | 2.6 | 6.1 | 0.00 | 0.00 | 0.00 | 95 | 1009.5 |
| 20260506153002 | 78 | 143 | 2.6 | 5.2 | 0.00 | 0.00 | 0.00 | 95 | 1009.3 |
| 20260506151501 | 78 | 136 | 3.5 | 8.7 | 0.00 | 0.00 | 0.00 | 95 | 1009.2 |
| 20260506150100 | 78 | 132 | 4.3 | 6.1 | 0.00 | 0.00 | 0.00 | 96 | 1008.9 |
| 20260506144606 | 77 | 124 | 3.5 | 6.1 | 0.00 | 0.00 | 0.00 | 96 | 1008.8 |
| 20260506143102 | 77 | 154 | 2.6 | 6.1 | 0.00 | 0.00 | 0.00 | 95 | 1008.8 |
| 20260506141553 | 77 | 141 | 3.5 | 6.1 | 0.00 | 0.00 | 0.00 | 96 | 1008.9 |
| 20260506140020 | 77 | 119 | 2.6 | 5.2 | 0.00 | 0.00 | 0.00 | 96 | 1009.0 |
| 20260506134520 | 77 | 139 | 2.6 | 6.1 | 0.00 | 0.00 | 0.00 | 96 | 1009.0 |
| 20260506133050 | 77 | 127 | 2.6 | 6.1 | 0.00 | 0.00 | 0.00 | 97 | 1009.1 |
| 20260506131548 | 76 | 119 | 1.7 | 3.5 | 0.00 | 0.00 | 0.00 | 97 | 1009.1 |
| 20260506130052 | 76 | 128 | 2.6 | 4.3 | 0.00 | 0.00 | 0.00 | 97 | 1009.0 |
| 20260506124542 | 0 | 0.0 | 0.0 | 0.00 | 0.00 | 0.00 | 1009.0 | ||
| 20260506123039 | 0 | 0.0 | 0.0 | 0.00 | 0.00 | 0.00 | 1008.8 | ||
| 20260506121532 | 0 | 0.0 | 0.0 | 0.00 | 0.00 | 0.00 | 1008.7 | ||
| 20260506120023 | 0 | 0.0 | 0.0 | 0.00 | 0.00 | 0.00 | 1008.5 | ||
| 20260506114513 | 0 | 0.0 | 0.0 | 0.00 | 0.00 | 0.00 | 1008.3 | ||
| 20260506113016 | 0 | 0.0 | 0.0 | 0.00 | 0.00 | 0.00 | 1008.0 | ||
| 20260506111505 | 0 | 0.0 | 0.0 | 0.00 | 0.00 | 0.00 | 1007.9 | ||
| 20260506110005 | 0 | 0.0 | 0.0 | 0.00 | 0.00 | 0.00 | 1007.9 | ||
| 20260506104601 | 0 | 0.0 | 0.0 | 0.00 | 0.00 | 0.00 | 1008.1 | ||
| 20260506103056 | 0 | 0.0 | 0.0 | 0.00 | 0.00 | 0.00 | 1008.0 | ||
| 20260506101551 | 0 | 146 | 3.5 | 5.2 | 0.00 | 0.00 | 0.00 | 97 | 1007.8 |
| 20260506100051 | 76 | 154 | 3.5 | 5.2 | 0.00 | 0.00 | 0.00 | 97 | 1007.7 |
| 20260506094550 | 76 | 133 | 3.5 | 6.1 | 0.00 | 0.00 | 0.00 | 96 | 1007.7 |
| 20260506093048 | 76 | 145 | 2.6 | 5.2 | 0.00 | 0.00 | 0.00 | 96 | 1007.8 |
| 20260506091548 | 76 | 149 | 2.6 | 5.2 | 0.00 | 0.00 | 0.00 | 96 | 1007.8 |
| 20260506090038 | 76 | 143 | 3.5 | 5.2 | 0.00 | 0.00 | 0.00 | 96 | 1007.9 |
| 20260506084524 | 76 | 126 | 3.5 | 6.1 | 0.00 | 0.00 | 0.00 | 96 | 1008.0 |
| 20260506083021 | 76 | 141 | 3.5 | 6.1 | 0.00 | 0.00 | 0.00 | 96 | 1008.2 |
| 20260506081519 | 76 | 150 | 3.5 | 5.2 | 0.00 | 0.00 | 0.00 | 95 | 1008.1 |
| 20260506073015 | 76 | 137 | 4.3 | 7.0 | 0.00 | 0.00 | 0.00 | 95 | 1008.7 |
| 20260506071514 | 77 | 169 | 5.2 | 7.8 | 0.00 | 0.00 | 0.00 | 95 | 1008.8 |
| 20260506061509 | 77 | 170 | 6.1 | 10.4 | 0.00 | 0.00 | 0.00 | 94 | 1008.7 |
| 20260506044501 | 77 | 181 | 7.0 | 12.2 | 0.00 | 0.00 | 0.00 | 94 | 1008.8 |
| 20260506043105 | 77 | 181 | 8.7 | 13.0 | 0.00 | 0.00 | 0.00 | 94 | 1008.7 |
| 20260506041557 | 77 | 165 | 6.1 | 11.3 | 0.00 | 0.00 | 0.00 | 94 | 1008.8 |
| 20260506040105 | 77 | 178 | 7.0 | 12.2 | 0.00 | 0.00 | 0.00 | 94 | 1008.7 |
| 20260506034604 | 77 | 154 | 7.0 | 11.3 | 0.00 | 0.00 | 0.00 | 94 | 1008.7 |
| 20260506033053 | 77 | 164 | 7.8 | 13.0 | 0.00 | 0.00 | 0.00 | 94 | 1008.5 |
| 20260506031551 | 77 | 143 | 7.0 | 10.4 | 0.00 | 0.00 | 0.00 | 94 | 1008.4 |
| 20260506030052 | 77 | 145 | 4.3 | 9.6 | 0.00 | 0.00 | 0.00 | 94 | 1008.4 |
| 20260506024552 | 77 | 149 | 7.0 | 8.7 | 0.00 | 0.00 | 0.00 | 94 | 1008.2 |
| 20260506023039 | 77 | 155 | 6.1 | 9.6 | 0.00 | 0.00 | 0.00 | 94 | 1007.9 |
| 20260506021538 | 77 | 145 | 5.2 | 7.8 | 0.00 | 0.00 | 0.00 | 94 | 1007.8 |
| 20260506020031 | 77 | 150 | 6.1 | 9.6 | 0.00 | 0.00 | 0.00 | 93 | 1007.5 |
| 20260506014531 | 77 | 173 | 5.2 | 8.7 | 0.00 | 0.00 | 0.00 | 93 | 1007.3 |
| 20260506013028 | 77 | 154 | 5.2 | 11.3 | 0.00 | 0.00 | 0.00 | 92 | 1007.2 |
| 20260506011525 | 77 | 191 | 7.0 | 11.3 | 0.00 | 0.00 | 0.00 | 92 | 1007.0 |
| 20260506010025 | 78 | 169 | 7.0 | 11.3 | 0.00 | 0.00 | 0.00 | 92 | 1006.8 |
| 20260506004524 | 78 | 162 | 6.1 | 12.2 | 0.00 | 0.00 | 0.00 | 91 | 1006.6 |
| 20260506003024 | 78 | 148 | 8.7 | 13.9 | 0.00 | 0.00 | 0.00 | 91 | 1006.6 |
| 20260506001521 | 78 | 164 | 8.7 | 13.9 | 0.00 | 0.00 | 0.00 | 90 | 1006.4 |
| 20260506000020 | 78 | 141 | 10.4 | 13.0 | 0.00 | 0.00 | 0.00 | 90 | 1006.6 |
| 20260505234522 | 78 | 175 | 8.7 | 13.9 | 0.00 | 0.00 | 0.00 | 90 | 1006.5 |
| 20260505233019 | 79 | 168 | 9.6 | 13.9 | 0.00 | 0.00 | 0.00 | 89 | 1006.6 |
| 20260505231603 | 79 | 148 | 8.7 | 19.1 | 0.00 | 0.00 | 0.00 | 88 | 1006.6 |
| 20260505230051 | 79 | 201 | 10.4 | 14.8 | 0.00 | 0.00 | 0.00 | 87 | 1006.6 |
| 20260505224544 | 79 | 187 | 9.6 | 19.1 | 0.00 | 0.00 | 0.00 | 87 | 1006.5 |
| 20260505223042 | 79 | 159 | 9.6 | 15.6 | 0.00 | 0.00 | 0.00 | 88 | 1006.7 |
| 20260505221542 | 79 | 143 | 7.0 | 16.5 | 0.00 | 0.00 | 0.00 | 89 | 1006.8 |
| 20260505220042 | 79 | 162 | 8.7 | 15.6 | 0.00 | 0.00 | 0.00 | 88 | 1006.8 |
| 20260505214551 | 79 | 183 | 9.6 | 17.4 | 0.00 | 0.00 | 0.00 | 88 | 1007.1 |
| 20260505213031 | 79 | 157 | 11.3 | 16.5 | 0.00 | 0.00 | 0.00 | 88 | 1007.1 |
| 20260505211533 | 79 | 186 | 10.4 | 18.2 | 0.00 | 0.00 | 0.00 | 88 | 1007.2 |
| 20260505210029 | 79 | 208 | 13.9 | 17.4 | 0.00 | 0.00 | 0.00 | 87 | 1007.2 |
| 20260505204527 | 80 | 190 | 13.0 | 15.6 | 0.00 | 0.00 | 0.00 | 87 | 1007.5 |
| 20260505203025 | 79 | 173 | 10.4 | 18.2 | 0.00 | 0.00 | 0.00 | 88 | 1007.9 |
| 20260505201521 | 80 | 194 | 13.0 | 19.1 | 0.00 | 0.00 | 0.00 | 87 | 1008.0 |
| 20260505200020 | 79 | 168 | 9.6 | 16.5 | 0.00 | 0.00 | 0.00 | 87 | 1008.1 |
| 20260505194519 | 80 | 213 | 10.4 | 16.5 | 0.00 | 0.00 | 0.00 | 87 | 1008.3 |
| 20260505193018 | 80 | 195 | 9.6 | 14.8 | 0.00 | 0.00 | 0.00 | 87 | 1008.2 |
| 20260505191518 | 79 | 210 | 7.0 | 14.8 | 0.00 | 0.00 | 0.00 | 88 | 1008.5 |
| 20260505190019 | 79 | 197 | 6.1 | 12.2 | 0.00 | 0.00 | 0.00 | 89 | 1008.5 |
| 20260505184512 | 79 | 199 | 9.6 | 14.8 | 0.00 | 0.00 | 0.00 | 89 | 1008.5 |
| 20260505183010 | 78 | 140 | 7.8 | 17.4 | 0.00 | 0.00 | 0.00 | 89 | 1008.7 |